Regional Weather Roundup
Issued by NWS Upton, NY

Current Version | Previous Version | Text Only | Print | Product List | Glossary On
Versions: 1 2 3 4 5 6 7 8 9 10 11 12 13 14 15 16 17 18 19 20 21 22 23 24 25 26 27
000 ASUS41 KOKX 180608 RWROKX REGIONAL WEATHER ROUNDUP NATIONAL WEATHER SERVICE NEW YORK NY 100 AM EST WED JAN 18 2017 NOTE: "FAIR" INDICATES FEW OR NO CLOUDS BELOW 12,000 FEET WITH NO SIGNIFICANT WEATHER AND/OR OBSTRUCTIONS TO VISIBILITY. NYZ071-072-176-178-NJZ106-104-180700- NEW YORK CITY METRO AREA CITY SKY/WX TMP DP RH WIND PRES REMARKS Central Park CLOUDY 38 37 97 E9 29.93F FOG WCI 31 Wall St Helipt CLOUDY 39 38 96 NE14 29.92F WCI 31 Bronx Bot Gard NOT AVBL LaGuardia APRT DRIZZLE 39 37 92 NE17 29.92F FOG WCI 30 Kennedy INTL LGT RAIN 41 38 89 NE10 29.92F FOG Breezy Point N/A 39 N/A N/A NE9 N/A WCI 33 Newark/Liberty DRIZZLE 39 38 96 N8 29.92F FOG WCI 33 Teterboro DRIZZLE 39 37 92 N3 29.92F FOG $$ NYZ177-179-078>081-180700- LONG ISLAND NEW YORK CITY SKY/WX TMP DP RH WIND PRES REMARKS Jones Beach N/A 39 N/A N/A NE14 N/A WCI 31 Matinecock PT NOT AVBL Farmingdale LGT RAIN 40 39 97 NE8 29.92F FOG WCI 34 MacArthur/ISP LGT RAIN 41 41 100 N7 29.92F FOG Shirley LGT RAIN 43 43 100 CALM 29.92F FOG Westhampton LGT RAIN 43 41 93 E8G17 29.94F FOG Southampton NOT AVBL Bridgehampton NOT AVBL East Hampton LGT RAIN 42 41 96 E9 29.95S Montauk N/A 43 42 97 E7 29.96F $$ NYZ052-065-067-180700- HUDSON VALLEY CITY SKY/WX TMP DP RH WIND PRES REMARKS White Plains CLOUDY 37 35 92 E12 29.90F WCI 29 Newburgh LGT RAIN 34 34 100 NE9 29.95F FOG WCI 26 Montgomery CLOUDY 34 32 92 N8 29.94F WCI 27 Poughkeepsie MIX PCPN 33 32 96 E5 29.94F FOG WCI 29 Albany LGT RAIN 34 31 88 S5 29.96F FOG WCI 30 $$ NJZ001-105-106-008-010-013-015-019>022-104-180700- NEW JERSEY CITY SKY/WX TMP DP RH WIND PRES REMARKS Newark/Liberty DRIZZLE 39 38 96 N8 29.92F FOG WCI 33 Teterboro DRIZZLE 39 37 92 N3 29.92F FOG Caldwell CLOUDY 37 36 96 NE5 29.94F FOG WCI 33 Somerville CLOUDY 38 36 92 N6 29.91F WCI 33 Linden CLOUDY 39 37 94 NE8 29.92F FOG WCI 33 Sussex LGT RAIN 34 33 96 NE7 29.93F WCI 28 Andover N/A 33 33 100 CALM 29.91S Trenton LGT RAIN 40 40 100 N6 29.89F FOG Millville FOG 46 46 100 CALM 29.88S VSB 1/2 Atlantic City FOG 46 44 93 CALM 29.89S VSB 1/2 Wrightstown RAIN 44 43 97 NW6 29.87R FOG Toms River LGT RAIN 44 44 100 CALM 29.89F VSB 3/4 Belmar FOG 45 44 97 N5 29.89F VSB 1/4 $$ PAZ047>061-062-071-180700- EASTERN PENNSYLVANIA CITY SKY/WX TMP DP RH WIND PRES REMARKS Philadelphia RAIN 43 42 97 CALM 29.90F FOG Allentown CLOUDY 37 35 92 NE7 29.90F FOG WCI 32 Scranton CLOUDY 37 35 92 E5 29.88S WCI 33 $$ CTZ002-004>006-009-010-012-RIZ004-006-007-MAZ004-011-015-180700- SOUTHERN NEW ENGLAND IN CT CITY SKY/WX TMP DP RH WIND PRES REMARKS Bradley INTL LGT RAIN 34 33 96 N7 30.01F FOG WCI 28 Hartford LGT RAIN 35 35 100 N7 30.00F FOG WCI 29 Danbury LGT RAIN 34 32 92 NE7 29.96F FOG WCI 28 Wtrbury/Oxford CLOUDY 34 30 86 E7 29.96F WCI 28 Bridgeport RAIN 39 36 89 NE10 29.96F FOG WCI 32 Meriden LGT RAIN 37 33 85 N7 29.98F FOG WCI 32 New Haven MIX PCPN 36 35 96 N8 29.96F WCI 30 Chester LGT RAIN 37 37 100 NE6 29.96F VSB 1 WCI 33 Groton CLOUDY 41 39 93 E10 29.97F Wilimantic LGT RAIN 38 37 97 NE6 30.01F FOG WCI 33 IN RI CITY SKY/WX TMP DP RH WIND PRES REMARKS Providence LGT RAIN 38 36 92 E6 30.02F WCI 33 Block Island NOT AVBL Westerly CLOUDY 41 37 86 NE13 29.99F FOG IN MA CITY SKY/WX TMP DP RH WIND PRES REMARKS Boston LGT RAIN 37 37 100 E15 30.08F FOG WCI 28 Worcester SNOW 31 30 96 NE5 30.01F VSB 1/4 WCI 26 Westfield RAIN 33 33 100 N8 30.01F FOG WCI 26 Provincetown LGT RAIN 38 37 97 E13 30.07F WCI 30 Nantucket LGT RAIN 41 38 89 E12 30.04R $$ ANZ330-335-338-340-345-350-353-355-180700- COASTAL MARINE OBSERVATIONS STATION/POSITION TIME SKY/WX TEMP WIND PRES VSBY WAVE AIR SEA DIR/SP/G HT/PER (UTC) (F) (DEG/KT/KT) (MB) (MI) (FT/S) NY HARB ENTRANCE 0450 44 44 70/ 10/ 14 1013.0 3/ 4 20 S FIRE ISLAND 0450 47 45 110/ 12/ 14 1012.8 3/ 4 GREAT SOUTH BAY NOT AVBL 23 SSW MONTAUK P 0450 46 48 120/ 19/ 23 1014.5 4/ 4 15 E BARNEGAT LI 0530 42 N/A 2/ 4 HUDSON CANYON 0450 53 53 1013.0 3/ 4 KINGS POINT 0542 37 38 1013.1 EXECUTION ROCKS 0545 38 50/ 16/ 19 N/A CENTRAL LI SOUND 0500 40 90/ 16/ 19 N/A 2/ 3 EASTERN LI SOUND NOT AVBL ROBBINS REEF 0548 38 50/ 12/ 14 1012.9 $$ >>>>>>>>>>>>>>>>>>>>>>>>>>>> KEY <<<<<<<<<<<<<<<<<<<<<<<<<<< > < > SKY/WX - Sky Condition/Present Weather < > TMP - Temperature in Fahrenheit < > DP - Dew Point in Fahrenheit < > RH - Relative Humidity in Percent < > WIND - Direction (from) and Speed in MPH < > PRES - Mean Sea Level Pressure (inches of Hg) < > WCI - Wind Chill Index < > VSB - VISIBILITY IN MILES < > HX - HEAT INDEX < > TC - TEMPERATURE IN CELSIUS < > VRB - VARIABLE WIND DIRECTION < > < >>>>>>>>>>>>>>>>>>>>>>>>>>>> KEY <<<<<<<<<<<<<<<<<<<<<<<<<<<

USA.gov is the U.S. government's official web portal to all federal, state and local government web resources and services.